| time (UTC) | temp F | wind direction | speed MPH | gust MPH | rain 1hr in | rain 24hr in | rain mn in | humidity % | barometer mb |
| 20260502220731 | 46 | 3 | 2.0 | 7.0 | 0.00 | 0.00 | 0.00 | 56 | 1016.3 |
| 20260502215730 | 46 | 14 | 0.0 | 2.0 | 0.00 | 0.00 | 0.00 | 60 | 1016.2 |
| 20260502214800 | 46 | 338 | 0.0 | 3.0 | 0.00 | 0.00 | 0.00 | 59 | 1016.1 |
| 20260502212729 | 47 | 333 | 0.0 | 3.0 | 0.00 | 0.00 | 0.00 | 51 | 1015.8 |
| 20260502210719 | 47 | 353 | 0.0 | 9.0 | 0.00 | 0.00 | 0.00 | 53 | 1016.0 |
| 20260502205719 | 48 | 349 | 0.0 | 3.0 | 0.00 | 0.00 | 0.00 | 52 | 1015.9 |
| 20260502204713 | 47 | 326 | 2.0 | 6.0 | 0.00 | 0.00 | 0.00 | 54 | 1015.9 |
| 20260502203714 | 47 | 354 | 1.0 | 3.0 | 0.00 | 0.00 | 0.00 | 56 | 1016.0 |
| 20260502202719 | 48 | 317 | 1.0 | 7.0 | 0.00 | 0.00 | 0.00 | 53 | 1016.0 |
| 20260502200701 | 46 | 322 | 2.0 | 4.0 | 0.00 | 0.00 | 0.00 | 56 | 1015.9 |
| 20260502195656 | 46 | 352 | 0.0 | 7.0 | 0.00 | 0.00 | 0.00 | 59 | 1016.1 |
| 20260502194653 | 48 | 357 | 1.0 | 3.0 | 0.00 | 0.00 | 0.00 | 57 | 1016.0 |
| 20260502193649 | 47 | 354 | 0.0 | 3.0 | 0.00 | 0.00 | 0.00 | 52 | 1016.0 |
| 20260502192648 | 48 | 351 | 1.0 | 4.0 | 0.00 | 0.00 | 0.00 | 52 | 1016.2 |
| 20260502191649 | 49 | 60 | 2.0 | 2.0 | 0.00 | 0.00 | 0.00 | 52 | 1016.2 |
| 20260502190646 | 47 | 330 | 0.0 | 4.0 | 0.00 | 0.00 | 0.00 | 54 | 1016.3 |
| 20260502185645 | 47 | 302 | 1.0 | 3.0 | 0.00 | 0.00 | 0.00 | 53 | 1016.5 |
| 20260502184643 | 48 | 40 | 2.0 | 4.0 | 0.00 | 0.00 | 0.00 | 49 | 1016.2 |
| 20260502183642 | 49 | 317 | 2.0 | 6.0 | 0.00 | 0.00 | 0.00 | 45 | 1016.3 |
| 20260502182639 | 51 | 300 | 1.0 | 4.0 | 0.00 | 0.00 | 0.00 | 48 | 1016.1 |
| 20260502181640 | 49 | 336 | 1.0 | 6.0 | 0.00 | 0.00 | 0.00 | 51 | 1016.3 |
| 20260502180633 | 48 | 344 | 0.0 | 6.0 | 0.00 | 0.00 | 0.00 | 54 | 1016.5 |
| 20260502161629 | 48 | 18 | 2.0 | 6.0 | 0.00 | 0.00 | 0.00 | 56 | 1016.8 |
| 20260502160629 | 47 | 308 | 2.0 | 10.0 | 0.00 | 0.00 | 0.00 | 57 | 1016.8 |
| 20260502151604 | 46 | 335 | 1.0 | 8.0 | 0.00 | 0.05 | 0.00 | 57 | 1016.9 |
| 20260502150602 | 46 | 46 | 1.0 | 11.0 | 0.00 | 0.05 | 0.00 | 58 | 1016.9 |
| 20260502123537 | 35 | 252 | 2.0 | 3.0 | 0.00 | 0.11 | 0.00 | 98 | 1016.5 |
| 20260502122533 | 35 | 331 | 0.0 | 1.0 | 0.00 | 0.11 | 0.00 | 99 | 1016.4 |
| 20260502121532 | 34 | 342 | 0.0 | 2.0 | 0.00 | 0.11 | 0.00 | 99 | 1016.3 |
| 20260502115529 | 34 | 344 | 0.0 | 2.0 | 0.00 | 0.11 | 0.00 | 99 | 1016.2 |
| 20260502114529 | 32 | 341 | 0.0 | 0.0 | 0.00 | 0.11 | 0.00 | 99 | 1015.9 |
| 20260502113528 | 32 | 347 | 0.0 | 0.0 | 0.00 | 0.11 | 0.00 | 99 | 1016.2 |
| 20260502112531 | 31 | 345 | 0.0 | 0.0 | 0.00 | 0.11 | 0.00 | 99 | 1016.2 |
| 20260502111528 | 30 | 347 | 0.0 | 0.0 | 0.00 | 0.11 | 0.00 | 99 | 1016.1 |
| 20260502110521 | 29 | 346 | 0.0 | 0.0 | 0.00 | 0.11 | 0.00 | 99 | 1016.0 |
| 20260502105522 | 29 | 345 | 0.0 | 0.0 | 0.00 | 0.11 | 0.00 | 99 | 1016.0 |
| 20260502104516 | 29 | 341 | 0.0 | 0.0 | 0.00 | 0.11 | 0.00 | 99 | 1016.0 |
| 20260502103509 | 29 | 347 | 0.0 | 0.0 | 0.00 | 0.11 | 0.00 | 99 | 1016.0 |
| 20260502102506 | 30 | 345 | 0.0 | 0.0 | 0.00 | 0.11 | 0.00 | 99 | 1016.1 |
| 20260502101510 | 30 | 350 | 0.0 | 0.0 | 0.00 | 0.11 | 0.00 | 99 | 1016.0 |
| 20260502100502 | 30 | 346 | 0.0 | 0.0 | 0.00 | 0.11 | 0.00 | 99 | 1016.0 |
| 20260502091502 | 31 | 345 | 0.0 | 0.0 | 0.00 | 0.11 | 0.00 | 99 | 1016.0 |
| 20260502090459 | 31 | 345 | 0.0 | 0.0 | 0.00 | 0.11 | 0.00 | 99 | 1015.9 |
| 20260502071434 | 33 | 345 | 0.0 | 0.0 | 0.00 | 0.11 | 0.00 | 98 | 1015.8 |
| 20260502070429 | 33 | 343 | 0.0 | 0.0 | 0.00 | 0.11 | 0.00 | 98 | 1015.8 |
| 20260502065429 | 33 | 345 | 0.0 | 0.0 | 0.00 | 0.11 | 0.00 | 98 | 1015.9 |
| 20260502064426 | 33 | 345 | 0.0 | 0.0 | 0.00 | 0.11 | 0.00 | 98 | 1015.9 |
| 20260502063423 | 33 | 346 | 0.0 | 0.0 | 0.00 | 0.11 | 0.00 | 98 | 1015.9 |
| 20260502062421 | 34 | 345 | 0.0 | 0.0 | 0.00 | 0.11 | 0.00 | 98 | 1016.0 |
| 20260502060422 | 34 | 350 | 0.0 | 1.0 | 0.00 | 0.11 | 0.00 | 97 | 1016.2 |
| 20260502054416 | 34 | 346 | 0.0 | 0.0 | 0.00 | 0.11 | 0.00 | 97 | 1016.3 |
| 20260502053412 | 35 | 345 | 0.0 | 0.0 | 0.00 | 0.11 | 0.00 | 97 | 1016.3 |
| 20260502052412 | 35 | 344 | 0.0 | 0.0 | 0.00 | 0.11 | 0.00 | 97 | 1016.3 |
| 20260502050408 | 35 | 347 | 0.0 | 1.0 | 0.00 | 0.11 | 0.00 | 97 | 1016.3 |
| 20260502045405 | 36 | 347 | 0.0 | 1.0 | 0.00 | 0.11 | 0.00 | 97 | 1016.3 |
| 20260502044404 | 36 | 340 | 0.0 | 1.0 | 0.00 | 0.11 | 0.00 | 97 | 1016.2 |
| 20260502043403 | 36 | 348 | 0.0 | 0.0 | 0.00 | 0.11 | 0.00 | 97 | 1015.9 |
| 20260502042358 | 36 | 347 | 0.0 | 0.0 | 0.00 | 0.11 | 0.00 | 96 | 1016.1 |
| 20260502041359 | 37 | 347 | 0.0 | 0.0 | 0.00 | 0.11 | 0.00 | 96 | 1016.4 |
| 20260502040400 | 37 | 348 | 0.0 | 0.0 | 0.00 | 0.11 | 0.00 | 96 | 1016.2 |
| 20260502035353 | 37 | 352 | 0.0 | 0.0 | 0.00 | 0.11 | 0.11 | 96 | 1016.0 |
| 20260502034352 | 37 | 348 | 0.0 | 0.0 | 0.00 | 0.11 | 0.11 | 96 | 1016.2 |
| 20260502033351 | 37 | 346 | 0.0 | 0.0 | 0.00 | 0.11 | 0.11 | 95 | 1016.1 |
| 20260502032347 | 38 | 347 | 0.0 | 1.0 | 0.00 | 0.11 | 0.11 | 95 | 1016.2 |
| 20260502031349 | 38 | 349 | 0.0 | 0.0 | 0.00 | 0.11 | 0.11 | 95 | 1016.4 |
| 20260502030344 | 38 | 349 | 0.0 | 0.0 | 0.00 | 0.11 | 0.11 | 94 | 1016.3 |
| 20260502025343 | 39 | 346 | 0.0 | 0.0 | 0.00 | 0.11 | 0.11 | 94 | 1016.5 |
| 20260502024340 | 39 | 345 | 0.0 | 1.0 | 0.00 | 0.11 | 0.11 | 93 | 1016.4 |
| 20260502023342 | 40 | 351 | 0.0 | 0.0 | 0.00 | 0.11 | 0.11 | 92 | 1016.3 |
| 20260502022335 | 40 | 346 | 0.0 | 0.0 | 0.00 | 0.11 | 0.11 | 91 | 1016.2 |
| 20260502021333 | 41 | 348 | 0.0 | 0.0 | 0.00 | 0.11 | 0.11 | 90 | 1016.0 |
| 20260502020329 | 41 | 347 | 0.0 | 0.0 | 0.00 | 0.11 | 0.11 | 90 | 1016.1 |
| 20260502015329 | 42 | 345 | 0.0 | 0.0 | 0.00 | 0.11 | 0.11 | 89 | 1015.8 |
| 20260502014330 | 42 | 343 | 0.0 | 1.0 | 0.00 | 0.11 | 0.11 | 88 | 1015.7 |
| 20260502013326 | 42 | 336 | 0.0 | 1.0 | 0.00 | 0.11 | 0.11 | 88 | 1015.5 |
| 20260502012324 | 42 | 348 | 0.0 | 2.0 | 0.00 | 0.11 | 0.11 | 87 | 1015.4 |
| 20260502011323 | 42 | 357 | 0.0 | 4.0 | 0.00 | 0.11 | 0.11 | 84 | 1014.9 |
| 20260502010320 | 43 | 21 | 1.0 | 4.0 | 0.00 | 0.11 | 0.11 | 82 | 1014.6 |
| 20260502005320 | 44 | 2 | 0.0 | 3.0 | 0.00 | 0.11 | 0.11 | 83 | 1014.6 |
| 20260502004319 | 44 | 2 | 0.0 | 2.0 | 0.00 | 0.11 | 0.11 | 85 | 1014.6 |
| 20260502003318 | 44 | 355 | 0.0 | 0.0 | 0.00 | 0.11 | 0.11 | 84 | 1014.8 |
| 20260502001313 | 46 | 346 | 0.0 | 0.0 | 0.00 | 0.11 | 0.11 | 80 | 1014.5 |
| 20260502000310 | 46 | 348 | 0.0 | 0.0 | 0.00 | 0.11 | 0.11 | 77 | 1014.6 |
| 20260501234307 | 47 | 350 | 0.0 | 0.0 | 0.00 | 0.11 | 0.11 | 75 | 1013.9 |
| 20260501233303 | 47 | 345 | 0.0 | 1.0 | 0.00 | 0.11 | 0.11 | 73 | 1013.9 |
| 20260501232305 | 47 | 341 | 0.0 | 2.0 | 0.00 | 0.11 | 0.11 | 74 | 1013.8 |
| 20260501231304 | 47 | 347 | 0.0 | 1.0 | 0.00 | 0.11 | 0.11 | 75 | 1013.8 |
| 20260501230301 | 47 | 354 | 0.0 | 3.0 | 0.00 | 0.11 | 0.11 | 72 | 1013.8 |
| 20260501225301 | 47 | 339 | 0.0 | 2.0 | 0.00 | 0.11 | 0.11 | 73 | 1013.7 |
| 20260501224301 | 49 | 105 | 1.0 | 2.0 | 0.00 | 0.11 | 0.11 | 72 | 1013.7 |
| 20260501223301 | 48 | 353 | 0.0 | 3.0 | 0.00 | 0.11 | 0.11 | 71 | 1013.8 |
| 20260501222305 | 49 | 338 | 0.0 | 7.0 | 0.00 | 0.11 | 0.11 | 69 | 1013.7 |
| 20260501221301 | 51 | 18 | 2.0 | 4.0 | 0.00 | 0.11 | 0.11 | 70 | 1013.9 |